{"data":{"norad_id":37933,"intl_designator":"2011-069A","name":"ASIASAT 7","alt_names":[],"object_type":"PAYLOAD","status":"ACTIVE","operator":null,"country":"AC","launch_date":"2011-11-25","launch_site_code":"TYMSC","launch_vehicle":null,"mission":null,"orbit_class":"UNKNOWN","rcs_meters":45.0715,"size_class":null,"mass_kg":null,"dimensions":null,"purposes":["comms"],"wikipedia_slug":null,"has_3d_model":false,"image_url":null,"decayed_at":null,"tle_current":{"epoch":"2026-09-20T00:18:54.068256Z","epoch_age_seconds":60385,"freshness":"FRESH","line1":"1 37933U 11069A   26263.01312579 -.00000338  00000+0  00000+0 0  9992","line2":"2 37933   0.0153 126.8194 0001784  18.8415 323.4889  1.00273606 45814","mean_motion":1.00273606,"eccentricity":0.0001784,"inclination_deg":0.0153,"raan_deg":126.8194,"arg_perigee_deg":18.8415,"mean_anomaly_deg":323.4889,"bstar":0,"rev_number":4581,"period_min":1436.0708240611,"perigee_km":35778.562379401,"apogee_km":35793.606573623,"semimajor_km":42164.221476512,"source":"CELESTRAK","updated_at":"2026-09-20T09:00:35.171760Z"}}}